[[{"header":{"parameterUnit":"m.s-1","parameterCategory":1,"la1":30.2991,"la2":30.254,"lo1":-89.0895,"lo2":-89.0444,"dy":0.0017,"dx":0.0017,"nx":28,"ny":28,"refTime":"2025-07-10T09:00:00:Z","depth":0,"parameterNumber":2,"parameterNumberName":"U-component_of_WINDS"},"data":[0,0,0,0,0,0,0,0,0,0,0,0,0,0,0,0,0,0,0,0,0,0,0,0,0,0,0,0,0,0,0,0,0,0,0,0,0,0,0,0,0,0,0,0,0,0,0,0,0,0,0,0,0,0,0,0,0,0,0.2269,0.227,0,0.2404,0.2406,0.2407,0.248,0.248,0.2481,0.2481,0.2622,0.2626,0.2629,0,0,0,0,0,0,0,0,0,0,0,0,0,0.2076,0.2079,0.2268,0.227,0.2272,0.2404,0.2406,0.2407,0.248,0.248,0.2481,0.2481,0.2621,0.2625,0.2629,0,0,0,0,0,0,0,0,0,0,0,0,0,0.218,0.208,0.2268,0.2324,0.233,0.2403,0.2406,0.2408,0.248,0.248,0.2481,0.2481,0.2619,0.2625,0.263,0.2659,0,0,0.2647,0.2649,0,0,0,0,0,0,0,0,0.2174,0.2187,0.2314,0.232,0.2328,0.2425,0.239,0.2492,0.248,0.2423,0.2481,0.2481,0.2557,0.2567,0.2592,0.2665,0.2671,0.2647,0.265,0.2653,0.2654,0,0,0,0,0,0,0,0.2167,0.2182,0.2322,0.2316,0.2324,0.2343,0.2358,0.2409,0.2487,0.2428,0.2434,0.2449,0.256,0.2587,0.2596,0.2674,0.2647,0.2652,0.2655,0.2657,0.2779,0.2779,0,0,0,0,0,0,0.2151,0.2175,0.2318,0.2326,0.225,0.2347,0.2363,0.2394,0.2487,0.2501,0.2448,0.2452,0.2577,0.259,0.2601,0.2642,0.2653,0.2658,0.2661,0.2779,0.2779,0.2779,0,0,0,0,0,0,0.2146,0.2162,0.2312,0.2253,0.2273,0.235,0.2383,0.2396,0.2423,0.2502,0.2516,0.2461,0.2578,0.2594,0.2644,0.2648,0.266,0.2665,0.2779,0.2779,0.2779,0.2724,0,0,0,0,0,0,0.214,0.216,0.2171,0.2252,0.2276,0.2352,0.2383,0.2399,0.2432,0.2437,0.2518,0.2531,0.2579,0.2636,0.265,0.2656,0.2669,0.2779,0.2779,0.2779,0.2725,0.2722,0.2718,0,0,0,0,0,0.2133,0.215,0.2171,0.2188,0.2291,0.2352,0.2366,0.242,0.2432,0.2444,0.2495,0.2529,0.2645,0.264,0.2656,0.2664,0.2779,0.2779,0.2779,0.2727,0.2722,0.2718,0,0,0,0,0,0,0.2069,0.2162,0.2186,0.223,0.2282,0.2364,0.2381,0.2413,0.2464,0.2467,0.2534,0.2551,0.2596,0.2635,0.2628,0.2698,0.2716,0.2719,0.2671,0.2667,0.2663,0.2653,0.2674,0,0,0,0,0,0.2059,0.21,0.218,0.2211,0.2236,0.2304,0.2332,0.237,0.2427,0.245,0.2505,0.2559,0.2609,0.264,0.269,0.2731,0.2751,0.2745,0.2741,0.2738,0.274,0.2767,0.2766,0.2779,0.2779,0.2779,0,0,0.2041,0.2097,0.2119,0.2199,0.2244,0.2286,0.2322,0.2364,0.2397,0.2457,0.2508,0.255,0.2616,0.2662,0.2685,0.2697,0.2741,0.2738,0.2735,0.2739,0.2767,0.2765,0.2764,0.2779,0.2779,0.2779,0,0,0.2029,0.2075,0.2106,0.2151,0.2218,0.2263,0.2271,0.2348,0.2378,0.243,0.2476,0.2516,0.2599,0.2645,0.2679,0.2685,0.2718,0.2699,0.2681,0.2706,0.2705,0.2705,0.2708,0.2708,0.2701,0.2701,0.2701,0,0.1998,0.2062,0.2119,0.2159,0.2194,0.2249,0.2283,0.2323,0.2403,0.2427,0.2438,0.2544,0.2592,0.2651,0.2652,0.2678,0.2689,0.2691,0.2701,0.2701,0.2701,0.2705,0.2706,0.2698,0.2699,0.2699,0.2699,0,0.2021,0.2065,0.2082,0.2158,0.2195,0.2231,0.2295,0.2325,0.236,0.2404,0.2457,0.2517,0.258,0.2597,0.2631,0.2661,0.2666,0.2688,0.2707,0.2696,0.2701,0.2703,0.2694,0.2695,0.2696,0.2697,0,0,0.1972,0.2079,0.2085,0.212,0.2199,0.2235,0.2274,0.2336,0.2361,0.2415,0.2451,0.252,0.2541,0.258,0.262,0.2642,0.2644,0.2661,0.2664,0.2657,0.2682,0.2666,0.2667,0.2667,0.2667,0.2667,0.2677,0,0.1972,0.2045,0.2098,0.2151,0.2193,0.2247,0.2281,0.2334,0.2377,0.242,0.2467,0.2516,0.2539,0.2563,0.2587,0.2639,0.265,0.2639,0.2702,0.2704,0.2684,0.2669,0.2652,0.2658,0.2679,0.268,0.268,0,0.1982,0.2034,0.2091,0.2166,0.2186,0.2216,0.2277,0.2317,0.2378,0.2408,0.2451,0.2492,0.2538,0.2552,0.2617,0.2608,0.2637,0.2666,0.2668,0.2677,0.2692,0.2679,0.2661,0.2663,0.2684,0.2683,0.2683,0,0.1942,0.2026,0.2071,0.21,0.2189,0.2209,0.2247,0.2309,0.2343,0.2396,0.2419,0.2478,0.251,0.2555,0.2611,0.2616,0.267,0.2689,0.2698,0.2696,0.2707,0.2706,0.2695,0.2724,0.2724,0.2724,0.2724,0,0.1938,0.1971,0.2055,0.2083,0.2122,0.2183,0.222,0.2263,0.2317,0.2355,0.2406,0.2441,0.2512,0.2556,0.2601,0.2648,0.2662,0.2689,0.27,0.2685,0.2682,0.2705,0.2707,0.2724,0.2724,0.2724,0.2724,0,0.19,0.1957,0.2011,0.209,0.2111,0.2136,0.2205,0.2235,0.2281,0.2328,0.2343,0.2415,0.2469,0.253,0.2605,0.2635,0.268,0.2696,0.2659,0.2666,0.2671,0.267,0.2676,0.2681,0.2705,0.2704,0.2704,0,0.1893,0.192,0.2003,0.2031,0.2068,0.2114,0.2149,0.221,0.2244,0.2317,0.2338,0.2396,0.2446,0.2531,0.2591,0.2649,0.2667,0.2666,0.2676,0.266,0.2669,0.2667,0.2671,0.2662,0.2662,0.2661,0.2661,0,0.1876,0.1904,0.1951,0.2009,0.2049,0.2098,0.2149,0.217,0.2242,0.2278,0.2334,0.2373,0.2449,0.2507,0.2572,0.2613,0.265,0.2657,0.2662,0.2647,0.2625,0.2638,0.2651,0.2657,0.2657,0.2658,0.2658,0.2658,0.1855,0.1882,0.1944,0.1996,0.2041,0.2087,0.212,0.2169,0.2216,0.2283,0.2317,0.2373,0.2435,0.2526,0.2566,0.2612,0.2624,0.2631,0.2633,0.2634,0.263,0.2617,0.2624,0.2624,0.2624,0.2625,0.2625,0,0.1842,0.1885,0.1932,0.2001,0.2042,0.2072,0.213,0.2163,0.2211,0.2266,0.2314,0.2379,0.2436,0.2499,0.256,0.2585,0.2603,0.2599,0.2598,0.2607,0.2616,0.2606,0.2583,0.2583,0.2583,0.2583,0.2583,0.2583,0.184,0.1887,0.1921,0.1992,0.2035,0.209,0.212,0.2164,0.2208,0.2278,0.2325,0.2366,0.2425,0.2491,0.2544,0.2562,0.2583,0.2574,0.2596,0.2603,0.2606,0.261,0.2601,0.2577,0.2577,0.2584,0.2584,0.2584]},{"header":{"parameterUnit":"m.s-1","parameterCategory":1,"la1":30.2991,"la2":30.254,"lo1":-89.0895,"lo2":-89.0444,"dy":0.0017,"dx":0.0017,"nx":28,"ny":28,"refTime":"2025-07-10T09:00:00:Z","depth":0,"parameterNumber":3,"parameterNumberName":"V-component_of_WINDS"},"data":[0,0,0,0,0,0,0,0,0,0,0,0,0,0,0,0,0,0,0,0,0,0,0,0,0,0,0,0,0,0,0,0,0,0,0,0,0,0,0,0,0,0,0,0,0,0,0,0,0,0,0,0,0,0,0,0,0,0,1.2124,1.2124,0,1.206,1.206,1.2059,1.2002,1.2001,1.2001,1.2,1.1935,1.1934,1.1933,0,0,0,0,0,0,0,0,0,0,0,0,0,1.2196,1.2195,1.2124,1.2123,1.2123,1.206,1.206,1.2059,1.2002,1.2001,1.2001,1.2,1.1935,1.1934,1.1932,0,0,0,0,0,0,0,0,0,0,0,0,0,1.2152,1.2194,1.2124,1.2087,1.2083,1.2061,1.206,1.2058,1.2002,1.2001,1.2,1.2,1.1936,1.1934,1.1932,1.1942,0,0,1.1927,1.1926,0,0,0,0,0,0,0,0,1.2154,1.2149,1.2093,1.209,1.2085,1.2038,1.2061,1.2019,1.2003,1.2033,1.2,1.1999,1.197,1.1965,1.1956,1.1939,1.1936,1.1927,1.1926,1.1925,1.1925,0,0,0,0,0,0,0,1.2157,1.2152,1.2099,1.2093,1.2088,1.2073,1.2066,1.2053,1.2008,1.203,1.2026,1.2019,1.1968,1.1957,1.1954,1.1935,1.1927,1.1926,1.1924,1.1924,1.192,1.1921,0,0,0,0,0,0,1.2166,1.2154,1.2101,1.2097,1.2118,1.2072,1.2064,1.2054,1.2008,1.2,1.202,1.2017,1.1961,1.1956,1.1951,1.1957,1.1925,1.1924,1.1923,1.1919,1.192,1.1921,0,0,0,0,0,0,1.2168,1.2162,1.2104,1.2125,1.2116,1.2072,1.2062,1.2054,1.2043,1.2,1.1992,1.2018,1.196,1.1953,1.1944,1.1955,1.1923,1.1921,1.1918,1.1919,1.1921,1.1972,0,0,0,0,0,0,1.217,1.2163,1.2167,1.2125,1.2115,1.2098,1.2062,1.2053,1.2041,1.2036,1.1996,1.1989,1.1958,1.1947,1.1942,1.1952,1.192,1.1917,1.1919,1.192,1.1969,1.1975,1.198,0,0,0,0,0,1.2173,1.2184,1.2167,1.2161,1.2119,1.2099,1.2093,1.2058,1.2042,1.2044,1.2016,1.199,1.1954,1.1946,1.1941,1.195,1.1916,1.1918,1.192,1.1966,1.1973,1.1979,0,0,0,0,0,0,1.2229,1.2178,1.2159,1.2157,1.2133,1.2089,1.2092,1.2067,1.2047,1.2044,1.2001,1.1993,1.1987,1.1968,1.196,1.1955,1.1931,1.1932,1.1968,1.1975,1.198,1.1985,1.1919,0,0,0,0,0,1.2241,1.2229,1.2185,1.2188,1.2177,1.2137,1.2127,1.2102,1.2075,1.2064,1.2036,1.2011,1.1993,1.1983,1.1965,1.1966,1.1955,1.1969,1.1974,1.1979,1.198,1.1977,1.1982,1.1928,1.1928,1.1928,0,0,1.2266,1.2237,1.2232,1.2198,1.2177,1.2165,1.2128,1.2118,1.2108,1.2063,1.2052,1.203,1.1998,1.1994,1.199,1.1977,1.1993,1.1981,1.1985,1.1984,1.198,1.1985,1.1989,1.1929,1.1929,1.1929,0,0,1.2305,1.2282,1.2281,1.2259,1.2226,1.2199,1.2199,1.2159,1.2143,1.2131,1.2095,1.2083,1.2055,1.2034,1.2019,1.2048,1.2022,1.2043,1.2071,1.2068,1.2073,1.2076,1.2085,1.2089,1.2045,1.2045,1.2045,0,1.234,1.2321,1.2283,1.2274,1.226,1.2217,1.2215,1.2196,1.2159,1.2149,1.2135,1.2097,1.2074,1.2062,1.2069,1.2059,1.2056,1.2048,1.2075,1.2078,1.2081,1.2089,1.2093,1.2047,1.2047,1.2047,1.2047,0,1.2365,1.2352,1.2355,1.2319,1.2305,1.23,1.226,1.225,1.2226,1.22,1.2188,1.2157,1.2131,1.2127,1.2104,1.2111,1.2104,1.2083,1.2058,1.209,1.2096,1.2099,1.2051,1.205,1.205,1.2049,0,0,1.2438,1.2381,1.2382,1.2365,1.2325,1.2314,1.2305,1.228,1.2271,1.2247,1.2238,1.2214,1.2194,1.2177,1.2151,1.2149,1.2171,1.2128,1.2126,1.2136,1.2176,1.2192,1.2196,1.2154,1.2154,1.2155,1.2178,0,1.247,1.2453,1.2417,1.2411,1.2398,1.2356,1.2349,1.2323,1.2298,1.2283,1.2255,1.2238,1.2213,1.2203,1.2199,1.217,1.2179,1.2167,1.2144,1.2144,1.2153,1.22,1.2216,1.224,1.2181,1.2181,1.2182,0,1.2505,1.2482,1.2474,1.2433,1.2426,1.242,1.2392,1.2379,1.2348,1.2329,1.231,1.2281,1.2269,1.2246,1.2228,1.2221,1.2209,1.2193,1.2193,1.2189,1.2165,1.2196,1.2247,1.2251,1.2186,1.2185,1.2185,0,1.2558,1.2525,1.2516,1.2502,1.2454,1.245,1.243,1.2398,1.2384,1.236,1.235,1.2325,1.2311,1.2292,1.2256,1.2243,1.2241,1.2216,1.2225,1.2226,1.2227,1.2227,1.2276,1.222,1.222,1.222,1.222,0,1.2597,1.2593,1.2538,1.2533,1.2527,1.2486,1.2481,1.2457,1.2429,1.2417,1.2379,1.2369,1.2322,1.2306,1.2277,1.2266,1.226,1.2244,1.2237,1.2247,1.2249,1.2239,1.2236,1.2221,1.2221,1.2221,1.2221,0,1.2655,1.2618,1.2605,1.256,1.2548,1.2546,1.2507,1.2499,1.2471,1.2457,1.2451,1.2407,1.2386,1.2348,1.2316,1.2297,1.229,1.2278,1.2301,1.2296,1.2307,1.2306,1.235,1.2354,1.2297,1.2298,1.2298,0,1.2682,1.2678,1.2632,1.2621,1.2602,1.2585,1.257,1.2529,1.2515,1.2478,1.2475,1.245,1.2429,1.2396,1.2361,1.2336,1.2322,1.2339,1.2318,1.2328,1.2321,1.2321,1.232,1.2344,1.2345,1.2346,1.2346,0,1.2733,1.2715,1.2695,1.2668,1.2652,1.2629,1.2604,1.2597,1.255,1.2536,1.2513,1.2496,1.2463,1.2438,1.2408,1.2386,1.2358,1.2353,1.2353,1.2364,1.2377,1.2369,1.2313,1.2352,1.2352,1.2351,1.2351,1.2351,1.2776,1.277,1.2736,1.2715,1.2691,1.2668,1.2658,1.2629,1.2609,1.2579,1.2555,1.2534,1.2501,1.2457,1.2436,1.2418,1.2405,1.2407,1.2407,1.2408,1.2411,1.238,1.2413,1.2412,1.2412,1.2412,1.2412,0,1.2825,1.28,1.2781,1.2747,1.2729,1.2704,1.2675,1.2662,1.2643,1.2615,1.2594,1.2567,1.2542,1.2505,1.2477,1.247,1.2456,1.2464,1.2464,1.2459,1.2425,1.2427,1.2476,1.2476,1.2476,1.2476,1.2476,1.2476,1.2848,1.2836,1.2813,1.2788,1.2763,1.2742,1.2727,1.2705,1.2682,1.2654,1.2633,1.2609,1.2576,1.2545,1.2521,1.2511,1.2502,1.2514,1.2499,1.2468,1.2462,1.2456,1.2458,1.2512,1.2512,1.2535,1.2535,1.2535]}]]